Location: Temelec
(38.2666°N, 122.4928°W)
Time: 13:45:32
(UTC+00:00)

Daily predictions for brighter satellites

Satellite Brightness Start Highest point End
(mag) Time Altitude Azimuth Time Altitude Azimuth Time Altitude Azimuth
Cosmos 1634 Rocket 4.2 12:27:01 10° S 12:33:08 68° E 12:39:16 10° NNE
Cosmos 2195 Rocket 4.5 12:44:25 47° N 12:46:24 81° E 12:52:41 10° S
Cosmos 1943 4.0 12:49:43 39° S 12:49:43 39° S 12:53:13 10° S
Cosmos 1741 Rocket 4.1 12:49:53 71° ENE 12:49:54 71° ENE 12:55:06 10° SSE
Hubble Space Telescope 3.3 12:51:15 14° SSE 12:51:18 14° SSE 12:53:23 10° SE
USA 234 3.1 12:53:15 10° NE 12:59:48 89° NW 13:02:27 40° SW
Cosmos 1092 Rocket 3.9 13:01:33 61° WSW 13:01:33 61° WSW 13:07:03 10° S
Cosmos 2142 Rocket 4.4 12:58:11 10° S 13:04:35 89° W 13:11:00 10° N
Okean O Rocket 3.8 13:01:46 10° NE 13:05:29 26° E 13:09:11 10° SSE
Cosmos 1850 Rocket 3.9 13:05:48 76° WNW 13:06:04 79° WSW 13:11:23 10° SSE
Cosmos 332 Rocket 4.0 13:02:49 10° S 13:07:41 72° ESE 13:12:35 10° NNE
Meteor 1-18 Rocket 4.1 13:14:32 51° NW 13:15:48 66° W 13:21:22 10° S
SKYMED 2 4.0 13:11:46 10° SSE 13:16:02 60° ENE 13:18:24 25° N
Okean 3 3.8 13:18:25 27° N 13:20:37 64° E 13:24:48 10° SSE
Cosmos 371 Rocket 3.3 13:25:50 49° WSW 13:26:42 57° WNW 13:31:30 10° N
ALOS 2.4 13:23:36 10° NNE 13:28:17 73° E 13:32:56 10° S
Cosmos 1428 Rocket 4.5 13:25:48 14° NNW 13:31:13 59° W 13:37:21 10° S
Meteor 1-5 Rocket 4.4 13:26:50 10° S 13:32:45 77° E 13:38:32 10° NNE
GPS 2-04 Rocket1 3.0 13:32:14 47° SW 13:32:56 55° S 13:36:50 10° E
Cosmos 2263 Rocket 4.3 13:37:10 10° NNW 13:37:10 10° NNW 13:37:11 10° NNW
Cosmos 1331 Rocket 3.9 13:29:28 10° SSW 13:34:31 57° WNW 13:39:38 10° N
Meteor 1-11 Rocket 4.2 13:29:34 10° S 13:35:16 66° E 13:41:07 10° NNE
Helios 1A Rocket 3.6 13:35:46 10° NNE 13:39:43 54° E 13:43:39 10° S
Meteor 2-4 Rocket 3.5 13:37:29 10° N 13:42:54 83° W 13:48:15 10° S
NOSS 3-2 (A) 3.2 13:39:55 10° SW 13:45:32 68° NW 13:51:53 10° NNE
Cosmos 2180 Rocket 4.4 13:40:14 10° SSW 13:46:17 66° W 13:52:27 10° N
Geosat 4.3 13:41:57 10° SE 13:46:55 64° ENE 13:51:51 10° NNW
METEOR-M 4.0 13:42:10 10° N 13:47:32 76° WNW 13:52:51 10° SSW
FALCON 9 R/B 4.0 13:43:20 24° W 13:48:37 70° S 14:17:51 10° ESE
FENGYUN 3A 3.5 13:44:17 10° N 13:49:40 76° WNW 13:55:00 10° SSW
CENTAUR R/B 2.9 13:47:04 10° SSW 13:52:44 65° ESE 13:59:20 10° NE
Cosmos 1110 Rocket 4.5 13:48:13 10° SW 13:52:55 35° WNW 13:57:38 10° N
BREEZE-M DEB (TANK) 2.6 13:52:45 35° SW 13:53:39 81° SE 13:57:20 10° NE
Cosmos 1908 Rocket 4.4 13:49:52 10° S 13:54:12 53° E 13:58:33 10° NNE
USA 238 DEB 3.8 13:52:28 10° SW 13:58:56 52° NW 14:05:38 10° NNE
USA 238 3.8 13:52:34 10° SW 13:59:02 53° NW 14:05:44 10° NNE
Cosmos 2279 Rocket 4.4 13:56:37 10° SW 14:02:19 38° WNW 14:08:04 10° N
Cosmos 1844 Rocket 3.0 13:58:10 10° SW 14:03:25 41° WNW 14:08:41 10° N
ADEOS Rocket 4.3 13:57:33 10° SE 14:03:51 43° ENE 14:09:34 10° N
COSMO-SKYMED 1 3.1 14:00:05 10° SSW 14:04:06 36° W 14:06:58 17° NW
CZ-4B DEB 4.4 14:00:30 10° N 14:05:50 50° WNW 14:11:09 10° SW
H-2A R/B 4.1 14:03:05 10° NNE 14:06:42 41° E 14:10:20 10° S
Cosmos 1733 Rocket 3.6 14:08:05 10° SW 14:11:58 33° WNW 14:15:55 10° NNW
Cosmos 44 Rocket 3.5 14:08:13 10° SW 14:12:55 46° NW 14:17:33 10° NNE
Cosmos 1500 3.9 14:09:48 10° SW 14:13:12 30° WNW 14:16:36 10° NNW
Cosmos 304 Rocket 4.1 14:12:29 10° SW 14:16:59 41° WNW 14:21:32 10° N
IRIDIUM 104 4.4 14:12:41 10° N 14:17:56 83° E 14:23:08 10° S
Cosmos 1844 4.1 14:12:30 10° SW 14:17:56 41° WNW 14:23:23 10° N
Cosmos 1486 Rocket 4.2 14:13:12 10° NNW 14:18:30 75° ENE 14:23:43 10° SSE
CZ-4B R/B 3.4 14:18:56 10° N 14:24:24 53° WNW 14:29:53 10° SSW
Cosmos 1536 3.3 14:21:08 10° SSW 14:24:57 39° W 14:28:47 10° N
IRIDIUM 114 4.3 14:21:50 10° N 14:27:04 80° W 14:32:16 10° S
CZ-4 R/B 4.4 14:24:30 10° NE 14:27:04 17° E 14:29:40 10° SE
ATLAS CENTAUR R/B 1.2 14:23:16 10° NNW 14:27:22 86° ENE 14:31:08 10° SSE
COSMOS 2406 3.6 14:21:56 10° NNW 14:27:36 65° ENE 14:33:12 10° SSE
SL-24 R/B 4.2 14:26:55 10° S 14:31:09 56° W 14:35:19 10° NNW
Hubble Space Telescope 2.9 14:28:43 10° SW 14:31:50 21° S 14:34:57 10° SE
IRIDIUM 103 4.3 14:31:03 10° N 14:36:13 65° W 14:41:22 10° S
CORIOLIS 4.5 14:33:54 10° NNE 14:39:19 74° ESE 14:44:39 10° S
Okean O Rocket 2.6 14:38:04 10° NNW 14:41:44 26° WNW 14:45:23 10° SW
USA 81 4.1 14:36:43 10° N 14:41:56 62° W 14:47:06 10° S
Cosmos 405 4.5 14:39:44 10° NW 14:42:13 18° W 14:44:41 10° SW
USA 234 4.1 14:36:45 10° NNE 14:42:17 30° NNW 14:47:49 10° W
ATLAS 3B R/B 2.6 14:36:03 10° SW 14:42:48 74° NW 14:49:29 10° NNE
GEOS 3 Rocket 3.9 14:40:18 10° SSE 14:45:12 49° WSW 14:50:10 10° NW
Cosmos 2082 Rocket 3.8 14:41:12 10° N 14:46:09 31° ENE 14:51:04 10° ESE
BREEZE-M DEB (TANK) 4.5 14:43:45 10° NW 14:47:09 16° NNW 14:49:12 10° NNE
Cosmos 1441 Rocket 3.3 14:44:38 10° SSW 14:48:32 58° W 14:52:25 10° N
Cosmos 1782 Rocket 3.6 14:45:19 10° SSW 14:49:42 65° W 14:54:05 10° N
Cosmos 1975 Rocket 3.3 14:45:16 10° N 14:49:45 80° E 14:54:13 10° S
NOSS 3-2 (C) 3.9 14:44:39 10° WSW 14:50:00 38° NW 14:56:00 10° NNE
Cosmos 968 Rocket 3.5 14:45:37 10° NNW 14:50:47 89° ENE 14:55:52 10° SSE
SMAP 3.1 14:47:27 10° N 14:52:03 60° WNW 14:56:36 10° SSW
Nadezhda 2 Rocket 4.5 14:46:47 10° N 14:52:54 80° W 14:59:00 10° S
